contact:dominique.lefevre@mio.osupytheas.fr, maurice.libes@osupytheas.fr, didier.mallarino@osupytheas.fr
Project:EMSO http://www.emso-fr.org/EMSO-France
Depth: 2436.0 m
Title:EMSO Ligure Ouest : Data MII capteur MICROCAT
DateTime_Computer,Latitude,Longitude,Temperature,Conductivity,Pressure,DateTime_Instrument
DateTime_Computer,Latitude,Longitude,degC,S m-1,dbar,DateTime_Instrument
2019-12-07T00:00:50Z,42.805,6.029,13.3011,4.59997,2469.96,2019-12-07T02:01:19Z
2019-12-07T00:03:53Z,42.805,6.029,13.3017,4.60003,2469.947,2019-12-07T02:04:22Z
2019-12-07T00:06:56Z,42.805,6.029,13.2966,4.60036,2469.96,2019-12-07T02:07:25Z
2019-12-07T00:09:59Z,42.805,6.029,13.2964,4.59991,2469.984,2019-12-07T02:10:29Z
2019-12-07T00:13:02Z,42.805,6.029,13.2955,4.60021,2469.97,2019-12-07T02:13:32Z
2019-12-07T00:16:05Z,42.805,6.029,13.2954,4.60036,2469.947,2019-12-07T02:16:35Z
2019-12-07T00:19:09Z,42.805,6.029,13.2956,4.60012,2469.947,2019-12-07T02:19:38Z
2019-12-07T00:22:12Z,42.805,6.029,13.2957,4.59998,2469.96,2019-12-07T02:22:41Z
2019-12-07T00:25:15Z,42.805,6.029,13.2957,4.60006,2469.984,2019-12-07T02:25:44Z
2019-12-07T00:28:18Z,42.805,6.029,13.2957,4.60009,2469.984,2019-12-07T02:28:48Z
2019-12-07T00:31:21Z,42.805,6.029,13.2959,4.60013,2469.984,2019-12-07T02:31:51Z
2019-12-07T00:34:25Z,42.805,6.029,13.2960,4.60009,2469.97,2019-12-07T02:34:54Z
2019-12-07T00:37:28Z,42.805,6.029,13.2958,4.59999,2469.97,2019-12-07T02:37:57Z
2019-12-07T00:40:31Z,42.805,6.029,13.2958,4.59995,2469.97,2019-12-07T02:41:00Z
2019-12-07T00:43:34Z,42.805,6.029,13.2957,4.59987,2469.96,2019-12-07T02:44:04Z
2019-12-07T00:46:37Z,42.805,6.029,13.2957,4.59979,2470.007,2019-12-07T02:47:07Z
2019-12-07T00:49:41Z,42.805,6.029,13.2961,4.59972,2469.993,2019-12-07T02:50:10Z
2019-12-07T00:52:44Z,42.805,6.029,13.2958,4.59994,2469.947,2019-12-07T02:53:13Z
2019-12-07T00:55:47Z,42.805,6.029,13.2955,4.59972,2469.96,2019-12-07T02:56:17Z
2019-12-07T00:58:50Z,42.805,6.029,13.2958,4.59974,2469.97,2019-12-07T02:59:20Z
2019-12-07T01:01:54Z,42.805,6.029,13.2955,4.59973,2469.984,2019-12-07T03:02:23Z
2019-12-07T01:04:57Z,42.805,6.029,13.2957,4.59968,2469.97,2019-12-07T03:05:26Z
2019-12-07T01:08:00Z,42.805,6.029,13.2955,4.59982,2469.97,2019-12-07T03:08:30Z
2019-12-07T01:11:03Z,42.805,6.029,13.2958,4.59983,2469.96,2019-12-07T03:11:33Z
2019-12-07T01:14:07Z,42.805,6.029,13.2961,4.59978,2469.96,2019-12-07T03:14:36Z
2019-12-07T01:17:10Z,42.805,6.029,13.2957,4.59972,2469.993,2019-12-07T03:17:39Z
2019-12-07T01:20:13Z,42.805,6.029,13.2957,4.59979,2469.984,2019-12-07T03:20:42Z
2019-12-07T01:23:16Z,42.805,6.029,13.2958,4.59972,2470.007,2019-12-07T03:23:46Z
2019-12-07T01:26:19Z,42.805,6.029,13.2958,4.59976,2470.03,2019-12-07T03:26:49Z
2019-12-07T01:29:22Z,42.805,6.029,13.2957,4.59982,2469.979,2019-12-07T03:29:52Z
2019-12-07T01:32:26Z,42.805,6.029,13.2958,4.59976,2469.984,2019-12-07T03:32:55Z
2019-12-07T01:35:29Z,42.805,6.029,13.2958,4.59978,2469.984,2019-12-07T03:35:58Z
2019-12-07T01:38:32Z,42.805,6.029,13.2956,4.59984,2469.97,2019-12-07T03:39:02Z
2019-12-07T01:41:35Z,42.805,6.029,13.2957,4.59974,2469.993,2019-12-07T03:42:05Z
2019-12-07T01:44:39Z,42.805,6.029,13.2957,4.59978,2470.007,2019-12-07T03:45:08Z
2019-12-07T01:47:42Z,42.805,6.029,13.2960,4.59983,2470.017,2019-12-07T03:48:11Z
2019-12-07T01:50:45Z,42.805,6.029,13.2953,4.59981,2469.993,2019-12-07T03:51:14Z
2019-12-07T01:53:48Z,42.805,6.029,13.2962,4.59975,2470.03,2019-12-07T03:54:18Z
2019-12-07T01:56:51Z,42.805,6.029,13.2961,4.59978,2469.97,2019-12-07T03:57:21Z
2019-12-07T01:59:55Z,42.805,6.029,13.2957,4.59968,2470.017,2019-12-07T04:00:24Z
2019-12-07T02:02:58Z,42.805,6.029,13.2962,4.59972,2470.017,2019-12-07T04:03:27Z
2019-12-07T02:06:01Z,42.805,6.029,13.2958,4.59976,2469.97,2019-12-07T04:06:30Z
2019-12-07T02:09:04Z,42.805,6.029,13.2959,4.59966,2470.007,2019-12-07T04:09:34Z
2019-12-07T02:12:07Z,42.805,6.029,13.2958,4.59964,2469.993,2019-12-07T04:12:37Z
2019-12-07T02:15:11Z,42.805,6.029,13.2961,4.59966,2470.007,2019-12-07T04:15:40Z
2019-12-07T02:18:14Z,42.805,6.029,13.2965,4.59966,2469.97,2019-12-07T04:18:43Z
2019-12-07T02:21:17Z,42.805,6.029,13.2967,4.59973,2470.03,2019-12-07T04:21:46Z
2019-12-07T02:24:20Z,42.805,6.029,13.2961,4.59963,2470.03,2019-12-07T04:24:50Z
2019-12-07T02:27:24Z,42.805,6.029,13.2964,4.59977,2470.03,2019-12-07T04:27:53Z
2019-12-07T02:30:27Z,42.805,6.029,13.2967,4.59962,2470.04,2019-12-07T04:30:56Z
2019-12-07T02:33:30Z,42.805,6.029,13.2966,4.59961,2470.04,2019-12-07T04:33:59Z
2019-12-07T02:36:33Z,42.805,6.029,13.2958,4.59962,2470.04,2019-12-07T04:37:03Z
2019-12-07T02:39:36Z,42.805,6.029,13.2960,4.59962,2470.03,2019-12-07T04:40:06Z
2019-12-07T02:42:40Z,42.805,6.029,13.2962,4.59961,2469.993,2019-12-07T04:43:09Z
2019-12-07T02:45:43Z,42.805,6.029,13.2968,4.59965,2470.03,2019-12-07T04:46:12Z
2019-12-07T02:48:46Z,42.805,6.029,13.2964,4.59966,2470.017,2019-12-07T04:49:15Z
2019-12-07T02:51:49Z,42.805,6.029,13.2961,4.59967,2470.04,2019-12-07T04:52:19Z
2019-12-07T02:54:52Z,42.805,6.029,13.2959,4.59969,2470.007,2019-12-07T04:55:22Z
2019-12-07T02:57:56Z,42.805,6.029,13.2957,4.59961,2470.03,2019-12-07T04:58:25Z
2019-12-07T03:00:59Z,42.805,6.029,13.2957,4.59960,2470.017,2019-12-07T05:01:28Z
2019-12-07T03:04:02Z,42.805,6.029,13.2960,4.59962,2470.077,2019-12-07T05:04:31Z
2019-12-07T03:07:05Z,42.805,6.029,13.2961,4.59962,2470.053,2019-12-07T05:07:35Z
2019-12-07T03:10:08Z,42.805,6.029,13.2957,4.59968,2470.03,2019-12-07T05:10:38Z
2019-12-07T03:13:12Z,42.805,6.029,13.2960,4.59964,2470.017,2019-12-07T05:13:41Z
2019-12-07T03:16:15Z,42.805,6.029,13.2956,4.59969,2470.017,2019-12-07T05:16:44Z
2019-12-07T03:19:18Z,42.805,6.029,13.2956,4.59961,2470.053,2019-12-07T05:19:48Z
2019-12-07T03:22:21Z,42.805,6.029,13.2961,4.59964,2470.017,2019-12-07T05:22:51Z
2019-12-07T03:25:25Z,42.805,6.029,13.2954,4.59961,2470.053,2019-12-07T05:25:54Z
2019-12-07T03:28:28Z,42.805,6.029,13.2958,4.59966,2470.017,2019-12-07T05:28:57Z
2019-12-07T03:31:31Z,42.805,6.029,13.2961,4.59958,2470.053,2019-12-07T05:32:00Z
2019-12-07T03:34:34Z,42.805,6.029,13.2958,4.59960,2470.017,2019-12-07T05:35:04Z
2019-12-07T03:37:37Z,42.805,6.029,13.2955,4.59958,2470.053,2019-12-07T05:38:07Z
2019-12-07T03:40:41Z,42.805,6.029,13.2961,4.59961,2469.993,2019-12-07T05:41:10Z
2019-12-07T03:43:44Z,42.805,6.029,13.2958,4.59960,2470.063,2019-12-07T05:44:13Z
2019-12-07T03:46:47Z,42.805,6.029,13.2962,4.59958,2470.04,2019-12-07T05:47:16Z
2019-12-07T03:49:50Z,42.805,6.029,13.2959,4.59960,2470.03,2019-12-07T05:50:20Z
2019-12-07T03:52:53Z,42.805,6.029,13.2956,4.59979,2470.03,2019-12-07T05:53:23Z
2019-12-07T03:55:57Z,42.805,6.029,13.2958,4.59962,2470.04,2019-12-07T05:56:26Z
2019-12-07T03:59:00Z,42.805,6.029,13.2957,4.59960,2470.04,2019-12-07T05:59:29Z
2019-12-07T04:02:03Z,42.805,6.029,13.2960,4.59960,2469.993,2019-12-07T06:02:33Z
2019-12-07T04:05:06Z,42.805,6.029,13.2958,4.59961,2470.017,2019-12-07T06:05:36Z
2019-12-07T04:08:10Z,42.805,6.029,13.2958,4.59963,2470.026,2019-12-07T06:08:39Z
2019-12-07T04:11:13Z,42.805,6.029,13.2959,4.59963,2470.04,2019-12-07T06:11:42Z
2019-12-07T04:14:16Z,42.805,6.029,13.2961,4.59961,2470.03,2019-12-07T06:14:45Z
2019-12-07T04:17:19Z,42.805,6.029,13.2956,4.59966,2470.063,2019-12-07T06:17:49Z
2019-12-07T04:20:22Z,42.805,6.029,13.2960,4.59960,2470.017,2019-12-07T06:20:52Z
2019-12-07T04:23:26Z,42.805,6.029,13.2958,4.59960,2470.04,2019-12-07T06:23:55Z
2019-12-07T04:26:29Z,42.805,6.029,13.2958,4.59959,2470.007,2019-12-07T06:26:58Z
2019-12-07T04:29:32Z,42.805,6.029,13.2959,4.59958,2470.017,2019-12-07T06:30:01Z
2019-12-07T04:32:35Z,42.805,6.029,13.2958,4.59973,2470.04,2019-12-07T06:33:05Z
2019-12-07T04:35:39Z,42.805,6.029,13.2955,4.59958,2470.017,2019-12-07T06:36:08Z
2019-12-07T04:38:42Z,42.805,6.029,13.2957,4.59958,2470.007,2019-12-07T06:39:11Z
2019-12-07T04:41:45Z,42.805,6.029,13.2961,4.59958,2470.007,2019-12-07T06:42:14Z
2019-12-07T04:44:48Z,42.805,6.029,13.2958,4.59959,2470.063,2019-12-07T06:45:18Z
2019-12-07T04:47:51Z,42.805,6.029,13.2955,4.59958,2470.053,2019-12-07T06:48:21Z
2019-12-07T04:50:54Z,42.805,6.029,13.2957,4.59959,2470.017,2019-12-07T06:51:24Z
2019-12-07T04:53:58Z,42.805,6.029,13.2954,4.59958,2470.04,2019-12-07T06:54:27Z
2019-12-07T04:57:01Z,42.805,6.029,13.2957,4.59958,2470.04,2019-12-07T06:57:30Z
2019-12-07T05:00:04Z,42.805,6.029,13.2959,4.59961,2470.017,2019-12-07T07:00:34Z
2019-12-07T05:03:07Z,42.805,6.029,13.2958,4.59961,2470.053,2019-12-07T07:03:37Z
2019-12-07T05:06:11Z,42.805,6.029,13.2964,4.59963,2470.04,2019-12-07T07:06:40Z
2019-12-07T05:09:14Z,42.805,6.029,13.2955,4.59961,2470.04,2019-12-07T07:09:43Z
2019-12-07T05:12:17Z,42.805,6.029,13.2955,4.59962,2469.97,2019-12-07T07:12:46Z
2019-12-07T05:15:20Z,42.805,6.029,13.2962,4.59961,2469.993,2019-12-07T07:15:50Z
2019-12-07T05:18:23Z,42.805,6.029,13.2957,4.59966,2470.007,2019-12-07T07:18:53Z
2019-12-07T05:21:27Z,42.805,6.029,13.2959,4.59961,2469.993,2019-12-07T07:21:56Z
2019-12-07T05:24:30Z,42.805,6.029,13.2955,4.59964,2470.053,2019-12-07T07:24:59Z
2019-12-07T05:27:33Z,42.805,6.029,13.2956,4.59964,2470.007,2019-12-07T07:28:03Z
2019-12-07T05:30:36Z,42.805,6.029,13.2960,4.59961,2469.97,2019-12-07T07:31:06Z
2019-12-07T05:33:40Z,42.805,6.029,13.2958,4.59966,2470.03,2019-12-07T07:34:09Z
2019-12-07T05:36:43Z,42.805,6.029,13.2959,4.59961,2470.007,2019-12-07T07:37:12Z
2019-12-07T05:39:46Z,42.805,6.029,13.2957,4.59958,2470.007,2019-12-07T07:40:15Z
2019-12-07T05:42:50Z,42.805,6.029,13.2958,4.59965,2470.017,2019-12-07T07:43:19Z
2019-12-07T05:45:53Z,42.805,6.029,13.2958,4.59968,2470.03,2019-12-07T07:46:22Z
2019-12-07T05:48:56Z,42.805,6.029,13.2959,4.59961,2470.03,2019-12-07T07:49:26Z
2019-12-07T05:51:59Z,42.805,6.029,13.2958,4.59961,2469.993,2019-12-07T07:52:29Z
2019-12-07T05:55:03Z,42.805,6.029,13.2959,4.59961,2469.993,2019-12-07T07:55:32Z
2019-12-07T05:58:06Z,42.805,6.029,13.2964,4.59960,2469.993,2019-12-07T07:58:35Z
2019-12-07T06:01:09Z,42.805,6.029,13.2962,4.59971,2470.007,2019-12-07T08:01:39Z
2019-12-07T06:04:12Z,42.805,6.029,13.2959,4.59969,2469.97,2019-12-07T08:04:42Z
2019-12-07T06:07:15Z,42.805,6.029,13.2957,4.59970,2470.04,2019-12-07T08:07:45Z
2019-12-07T06:10:19Z,42.805,6.029,13.2959,4.59968,2470.03,2019-12-07T08:10:48Z
2019-12-07T06:13:22Z,42.805,6.029,13.2958,4.59968,2469.993,2019-12-07T08:13:51Z
2019-12-07T06:16:25Z,42.805,6.029,13.2955,4.59971,2470.007,2019-12-07T08:16:55Z
2019-12-07T06:19:28Z,42.805,6.029,13.2961,4.59964,2469.993,2019-12-07T08:19:58Z
2019-12-07T06:22:32Z,42.805,6.029,13.2958,4.59962,2470.03,2019-12-07T08:23:01Z
2019-12-07T06:25:35Z,42.805,6.029,13.2955,4.59969,2469.993,2019-12-07T08:26:04Z
2019-12-07T06:28:38Z,42.805,6.029,13.2956,4.59966,2470.007,2019-12-07T08:29:08Z
2019-12-07T06:31:41Z,42.805,6.029,13.2958,4.59963,2469.993,2019-12-07T08:32:11Z
2019-12-07T06:34:45Z,42.805,6.029,13.2956,4.59961,2469.984,2019-12-07T08:35:14Z
2019-12-07T06:37:48Z,42.805,6.029,13.2953,4.59964,2470.03,2019-12-07T08:38:17Z
2019-12-07T06:40:51Z,42.805,6.029,13.2958,4.59972,2469.993,2019-12-07T08:41:20Z
2019-12-07T06:43:54Z,42.805,6.029,13.2961,4.59961,2469.993,2019-12-07T08:44:24Z
2019-12-07T06:46:57Z,42.805,6.029,13.2958,4.59962,2469.993,2019-12-07T08:47:27Z
2019-12-07T06:50:01Z,42.805,6.029,13.2960,4.59960,2470.03,2019-12-07T08:50:30Z
2019-12-07T06:53:04Z,42.805,6.029,13.2959,4.59962,2469.97,2019-12-07T08:53:33Z
2019-12-07T06:56:07Z,42.805,6.029,13.2957,4.59958,2469.993,2019-12-07T08:56:37Z
2019-12-07T06:59:10Z,42.805,6.029,13.2957,4.59961,2470.007,2019-12-07T08:59:40Z
2019-12-07T07:02:14Z,42.805,6.029,13.2961,4.59973,2469.984,2019-12-07T09:02:43Z
2019-12-07T07:05:17Z,42.805,6.029,13.2967,4.59972,2469.97,2019-12-07T09:05:46Z
2019-12-07T07:08:20Z,42.805,6.029,13.2974,4.59976,2470.017,2019-12-07T09:08:49Z
2019-12-07T07:11:23Z,42.805,6.029,13.2990,4.59986,2469.947,2019-12-07T09:11:53Z
2019-12-07T07:14:26Z,42.805,6.029,13.2973,4.60019,2469.97,2019-12-07T09:14:56Z
2019-12-07T07:17:29Z,42.805,6.029,13.3043,4.59997,2469.97,2019-12-07T09:17:59Z
2019-12-07T07:20:33Z,42.805,6.029,13.3016,4.59981,2469.993,2019-12-07T09:21:02Z
2019-12-07T07:23:36Z,42.805,6.029,13.3000,4.59981,2470.007,2019-12-07T09:24:05Z
2019-12-07T07:26:39Z,42.805,6.029,13.3018,4.59997,2470.007,2019-12-07T09:27:08Z
2019-12-07T07:29:43Z,42.805,6.029,13.3025,4.60013,2469.993,2019-12-07T09:30:12Z
2019-12-07T07:32:46Z,42.805,6.029,13.2960,4.60011,2469.97,2019-12-07T09:33:15Z
2019-12-07T07:35:49Z,42.805,6.029,13.2963,4.59979,2470.007,2019-12-07T09:36:18Z
2019-12-07T07:38:52Z,42.805,6.029,13.2964,4.59986,2469.993,2019-12-07T09:39:22Z
2019-12-07T07:41:55Z,42.805,6.029,13.2957,4.59964,2469.947,2019-12-07T09:42:25Z
2019-12-07T07:44:59Z,42.805,6.029,13.2957,4.59967,2469.979,2019-12-07T09:45:28Z
2019-12-07T07:48:02Z,42.805,6.029,13.2956,4.59997,2469.937,2019-12-07T09:48:31Z
2019-12-07T07:51:05Z,42.805,6.029,13.2959,4.59966,2469.97,2019-12-07T09:51:34Z
2019-12-07T07:54:08Z,42.805,6.029,13.2953,4.59971,2469.97,2019-12-07T09:54:38Z
2019-12-07T07:57:11Z,42.805,6.029,13.2953,4.59974,2469.984,2019-12-07T09:57:41Z
2019-12-07T08:00:14Z,42.805,6.029,13.2958,4.59981,2469.97,2019-12-07T10:00:44Z
2019-12-07T08:03:18Z,42.805,6.029,13.2958,4.60057,2469.97,2019-12-07T10:03:47Z
2019-12-07T08:06:21Z,42.805,6.029,13.2961,4.59987,2469.97,2019-12-07T10:06:50Z
2019-12-07T08:09:24Z,42.805,6.029,13.2967,4.59987,2469.984,2019-12-07T10:09:53Z
2019-12-07T08:12:27Z,42.805,6.029,13.2974,4.59988,2469.984,2019-12-07T10:12:57Z
2019-12-07T08:15:30Z,42.805,6.029,13.2986,4.59966,2469.947,2019-12-07T10:16:00Z
2019-12-07T08:18:34Z,42.805,6.029,13.2990,4.59970,2469.984,2019-12-07T10:19:03Z
2019-12-07T08:21:37Z,42.805,6.029,13.3000,4.59975,2469.993,2019-12-07T10:22:06Z
2019-12-07T08:24:40Z,42.805,6.029,13.2998,4.59966,2469.96,2019-12-07T10:25:09Z
2019-12-07T08:27:43Z,42.805,6.029,13.3015,4.59966,2469.947,2019-12-07T10:28:13Z
2019-12-07T08:30:46Z,42.805,6.029,13.3036,4.59976,2470.007,2019-12-07T10:31:16Z
2019-12-07T08:33:50Z,42.805,6.029,13.3039,4.60021,2469.97,2019-12-07T10:34:19Z
2019-12-07T08:36:53Z,42.805,6.029,13.3028,4.60017,2469.923,2019-12-07T10:37:22Z
2019-12-07T08:39:56Z,42.805,6.029,13.3029,4.60013,2469.984,2019-12-07T10:40:25Z
2019-12-07T08:42:59Z,42.805,6.029,13.3041,4.59996,2470.007,2019-12-07T10:43:29Z
2019-12-07T08:46:02Z,42.805,6.029,13.2990,4.59991,2469.97,2019-12-07T10:46:32Z
2019-12-07T08:49:06Z,42.805,6.029,13.3003,4.60000,2469.96,2019-12-07T10:49:35Z
2019-12-07T08:52:09Z,42.805,6.029,13.3017,4.60000,2469.96,2019-12-07T10:52:38Z
2019-12-07T08:55:12Z,42.805,6.029,13.3013,4.60004,2469.984,2019-12-07T10:55:41Z
2019-12-07T08:58:15Z,42.805,6.029,13.3018,4.60009,2469.984,2019-12-07T10:58:45Z
2019-12-07T09:01:18Z,42.805,6.029,13.3021,4.59991,2469.947,2019-12-07T11:01:48Z
2019-12-07T09:04:22Z,42.805,6.029,13.3020,4.59993,2469.923,2019-12-07T11:04:51Z
2019-12-07T09:07:25Z,42.805,6.029,13.3015,4.60019,2469.947,2019-12-07T11:07:54Z
2019-12-07T09:10:28Z,42.805,6.029,13.2996,4.60016,2469.923,2019-12-07T11:10:57Z
2019-12-07T09:13:31Z,42.805,6.029,13.2995,4.59979,2469.97,2019-12-07T11:14:01Z
2019-12-07T09:16:34Z,42.805,6.029,13.3009,4.59976,2469.97,2019-12-07T11:17:04Z
2019-12-07T09:19:37Z,42.805,6.029,13.2974,4.59977,2469.947,2019-12-07T11:20:07Z
2019-12-07T09:22:41Z,42.805,6.029,13.2974,4.59963,2469.96,2019-12-07T11:23:10Z
2019-12-07T09:25:44Z,42.805,6.029,13.2983,4.59966,2469.97,2019-12-07T11:26:13Z
2019-12-07T09:28:47Z,42.805,6.029,13.2968,4.59968,2469.993,2019-12-07T11:29:17Z
2019-12-07T09:31:50Z,42.805,6.029,13.2970,4.59965,2469.97,2019-12-07T11:32:20Z
2019-12-07T09:34:54Z,42.805,6.029,13.2967,4.59965,2469.923,2019-12-07T11:35:23Z
2019-12-07T09:37:57Z,42.805,6.029,13.2966,4.59975,2469.97,2019-12-07T11:38:26Z
2019-12-07T09:41:00Z,42.805,6.029,13.2959,4.59966,2469.984,2019-12-07T11:41:29Z
2019-12-07T09:44:03Z,42.805,6.029,13.2958,4.59964,2469.947,2019-12-07T11:44:32Z
2019-12-07T09:47:06Z,42.805,6.029,13.2959,4.59963,2469.96,2019-12-07T11:47:36Z
2019-12-07T09:50:09Z,42.805,6.029,13.2955,4.59961,2469.96,2019-12-07T11:50:39Z
2019-12-07T09:53:13Z,42.805,6.029,13.2958,4.59962,2469.96,2019-12-07T11:53:42Z
2019-12-07T09:56:16Z,42.805,6.029,13.2956,4.59960,2469.984,2019-12-07T11:56:45Z
2019-12-07T09:59:19Z,42.805,6.029,13.2957,4.59961,2469.984,2019-12-07T11:59:48Z
2019-12-07T10:02:22Z,42.805,6.029,13.2958,4.59959,2469.984,2019-12-07T12:02:52Z
2019-12-07T10:05:25Z,42.805,6.029,13.2960,4.59960,2469.993,2019-12-07T12:05:55Z
2019-12-07T10:08:28Z,42.805,6.029,13.2959,4.59961,2469.984,2019-12-07T12:08:58Z
2019-12-07T10:11:32Z,42.805,6.029,13.2957,4.59958,2469.96,2019-12-07T12:12:01Z
2019-12-07T10:14:35Z,42.805,6.029,13.2954,4.59959,2469.97,2019-12-07T12:15:04Z
2019-12-07T10:17:38Z,42.805,6.029,13.2957,4.59959,2469.96,2019-12-07T12:18:07Z
2019-12-07T10:20:41Z,42.805,6.029,13.2954,4.59958,2469.937,2019-12-07T12:21:11Z
2019-12-07T10:23:44Z,42.805,6.029,13.2958,4.59961,2469.96,2019-12-07T12:24:14Z
2019-12-07T10:26:47Z,42.805,6.029,13.2956,4.59962,2470.007,2019-12-07T12:27:17Z
2019-12-07T10:29:51Z,42.805,6.029,13.2957,4.59961,2469.96,2019-12-07T12:30:20Z
2019-12-07T10:32:54Z,42.805,6.029,13.2964,4.59961,2469.97,2019-12-07T12:33:23Z
2019-12-07T10:35:57Z,42.805,6.029,13.2957,4.59968,2469.96,2019-12-07T12:36:27Z
2019-12-07T10:39:00Z,42.805,6.029,13.2957,4.59958,2469.97,2019-12-07T12:39:30Z
2019-12-07T10:42:04Z,42.805,6.029,13.2960,4.59958,2469.97,2019-12-07T12:42:33Z
2019-12-07T10:45:07Z,42.805,6.029,13.2959,4.59960,2469.984,2019-12-07T12:45:36Z
2019-12-07T10:48:10Z,42.805,6.029,13.2957,4.59984,2469.984,2019-12-07T12:48:39Z
2019-12-07T10:51:13Z,42.805,6.029,13.2961,4.59961,2469.984,2019-12-07T12:51:43Z
2019-12-07T10:54:16Z,42.805,6.029,13.2958,4.59961,2469.97,2019-12-07T12:54:46Z
2019-12-07T10:57:20Z,42.805,6.029,13.2959,4.59961,2469.984,2019-12-07T12:57:49Z
2019-12-07T11:00:23Z,42.805,6.029,13.2960,4.59961,2469.933,2019-12-07T13:00:52Z
2019-12-07T11:03:26Z,42.805,6.029,13.2958,4.59961,2469.923,2019-12-07T13:03:55Z
2019-12-07T11:06:29Z,42.805,6.029,13.2960,4.59966,2469.923,2019-12-07T13:06:59Z
2019-12-07T11:09:32Z,42.805,6.029,13.2961,4.59960,2469.97,2019-12-07T13:10:02Z
2019-12-07T11:12:36Z,42.805,6.029,13.2958,4.59961,2469.947,2019-12-07T13:13:05Z
2019-12-07T11:15:39Z,42.805,6.029,13.2958,4.59962,2469.947,2019-12-07T13:16:08Z
2019-12-07T11:18:42Z,42.805,6.029,13.2960,4.59966,2469.947,2019-12-07T13:19:11Z
2019-12-07T11:21:45Z,42.805,6.029,13.2957,4.59958,2469.947,2019-12-07T13:22:15Z
2019-12-07T11:24:48Z,42.805,6.029,13.2957,4.59960,2469.947,2019-12-07T13:25:18Z
2019-12-07T11:27:51Z,42.805,6.029,13.2959,4.59960,2469.984,2019-12-07T13:28:21Z
2019-12-07T11:30:55Z,42.805,6.029,13.2958,4.59966,2469.947,2019-12-07T13:31:24Z
2019-12-07T11:33:58Z,42.805,6.029,13.2957,4.59971,2469.993,2019-12-07T13:34:27Z
2019-12-07T11:37:01Z,42.805,6.029,13.2958,4.59962,2469.97,2019-12-07T13:37:30Z
2019-12-07T11:40:04Z,42.805,6.029,13.2956,4.59962,2469.984,2019-12-07T13:40:34Z
2019-12-07T11:43:07Z,42.805,6.029,13.2958,4.59961,2469.993,2019-12-07T13:43:37Z
2019-12-07T11:46:11Z,42.805,6.029,13.2958,4.59964,2469.993,2019-12-07T13:46:40Z
2019-12-07T11:49:14Z,42.805,6.029,13.2957,4.59962,2469.933,2019-12-07T13:49:43Z
2019-12-07T11:52:17Z,42.805,6.029,13.2956,4.59971,2469.984,2019-12-07T13:52:46Z
2019-12-07T11:55:20Z,42.805,6.029,13.2955,4.59961,2469.993,2019-12-07T13:55:50Z
2019-12-07T11:58:23Z,42.805,6.029,13.2957,4.59959,2469.947,2019-12-07T13:58:53Z
2019-12-07T12:01:27Z,42.805,6.029,13.2956,4.59963,2469.993,2019-12-07T14:01:56Z
2019-12-07T12:04:30Z,42.805,6.029,13.2953,4.59961,2469.947,2019-12-07T14:04:59Z
2019-12-07T12:07:33Z,42.805,6.029,13.2958,4.59964,2469.993,2019-12-07T14:08:02Z
2019-12-07T12:10:36Z,42.805,6.029,13.2959,4.59961,2469.97,2019-12-07T14:11:06Z
2019-12-07T12:13:39Z,42.805,6.029,13.2957,4.59966,2469.97,2019-12-07T14:14:09Z
2019-12-07T12:16:43Z,42.805,6.029,13.2958,4.59960,2470.007,2019-12-07T14:17:12Z
2019-12-07T12:19:46Z,42.805,6.029,13.2958,4.59964,2469.993,2019-12-07T14:20:15Z
2019-12-07T12:22:49Z,42.805,6.029,13.2957,4.59973,2469.993,2019-12-07T14:23:18Z
2019-12-07T12:25:52Z,42.805,6.029,13.2954,4.59966,2470.007,2019-12-07T14:26:22Z
2019-12-07T12:28:55Z,42.805,6.029,13.2959,4.59980,2469.97,2019-12-07T14:29:25Z
2019-12-07T12:31:59Z,42.805,6.029,13.2961,4.59966,2469.97,2019-12-07T14:32:28Z
2019-12-07T12:35:02Z,42.805,6.029,13.2959,4.59970,2469.97,2019-12-07T14:35:31Z
2019-12-07T12:38:05Z,42.805,6.029,13.2959,4.59971,2469.97,2019-12-07T14:38:34Z
2019-12-07T12:41:08Z,42.805,6.029,13.2959,4.59980,2469.96,2019-12-07T14:41:38Z
2019-12-07T12:44:11Z,42.805,6.029,13.2961,4.59966,2469.96,2019-12-07T14:44:41Z
2019-12-07T12:47:15Z,42.805,6.029,13.2958,4.59969,2469.984,2019-12-07T14:47:44Z
2019-12-07T12:50:18Z,42.805,6.029,13.3118,4.59969,2469.993,2019-12-07T14:50:47Z
2019-12-07T12:53:21Z,42.805,6.029,13.2971,4.59978,2469.984,2019-12-07T14:53:50Z
2019-12-07T12:56:24Z,42.805,6.029,13.2966,4.59969,2469.97,2019-12-07T14:56:54Z
2019-12-07T12:59:27Z,42.805,6.029,13.2972,4.59973,2469.97,2019-12-07T14:59:57Z
2019-12-07T13:02:30Z,42.805,6.029,13.2972,4.59976,2469.97,2019-12-07T15:03:00Z
2019-12-07T13:05:34Z,42.805,6.029,13.2981,4.59981,2469.993,2019-12-07T15:06:03Z
2019-12-07T13:08:37Z,42.805,6.029,13.2989,4.59987,2470.03,2019-12-07T15:09:06Z
2019-12-07T13:11:40Z,42.805,6.029,13.3005,4.59986,2470.03,2019-12-07T15:12:09Z
2019-12-07T13:14:43Z,42.805,6.029,13.3028,4.59972,2469.993,2019-12-07T15:15:13Z
2019-12-07T13:17:46Z,42.805,6.029,13.3031,4.59971,2470.007,2019-12-07T15:18:16Z
2019-12-07T13:20:49Z,42.805,6.029,13.3033,4.59999,2469.993,2019-12-07T15:21:19Z
2019-12-07T13:23:53Z,42.805,6.029,13.3019,4.60023,2469.97,2019-12-07T15:24:22Z
2019-12-07T13:26:56Z,42.805,6.029,13.3007,4.60008,2469.96,2019-12-07T15:27:25Z
2019-12-07T13:29:59Z,42.805,6.029,13.3030,4.60021,2469.993,2019-12-07T15:30:29Z
2019-12-07T13:33:02Z,42.805,6.029,13.3023,4.60003,2469.97,2019-12-07T15:33:32Z
2019-12-07T13:36:06Z,42.805,6.029,13.3030,4.60039,2470.017,2019-12-07T15:36:35Z
2019-12-07T13:39:09Z,42.805,6.029,13.3036,4.59991,2470.03,2019-12-07T15:39:38Z
2019-12-07T13:42:12Z,42.805,6.029,13.3036,4.59997,2469.97,2019-12-07T15:42:41Z
2019-12-07T13:45:15Z,42.805,6.029,13.3037,4.59991,2470.03,2019-12-07T15:45:45Z
2019-12-07T13:48:18Z,42.805,6.029,13.3029,4.60008,2470.017,2019-12-07T15:48:48Z
2019-12-07T13:51:22Z,42.805,6.029,13.3036,4.60001,2470.03,2019-12-07T15:51:51Z
2019-12-07T13:54:25Z,42.805,6.029,13.3026,4.59995,2470.03,2019-12-07T15:54:54Z
2019-12-07T13:57:28Z,42.805,6.029,13.3021,4.60021,2470.063,2019-12-07T15:57:57Z
2019-12-07T14:00:31Z,42.805,6.029,13.3035,4.60028,2469.993,2019-12-07T16:01:01Z
2019-12-07T14:03:34Z,42.805,6.029,13.3044,4.60021,2470.03,2019-12-07T16:04:04Z
2019-12-07T14:06:37Z,42.805,6.029,13.3043,4.60015,2470.04,2019-12-07T16:07:07Z
2019-12-07T14:09:41Z,42.805,6.029,13.3045,4.60023,2469.993,2019-12-07T16:10:10Z
2019-12-07T14:12:44Z,42.805,6.029,13.2963,4.60018,2470.03,2019-12-07T16:13:13Z
2019-12-07T14:15:47Z,42.805,6.029,13.2961,4.60094,2470.04,2019-12-07T16:16:17Z
2019-12-07T14:18:50Z,42.805,6.029,13.2976,4.60014,2470.017,2019-12-07T16:19:20Z
2019-12-07T14:21:53Z,42.805,6.029,13.2999,4.60036,2470.03,2019-12-07T16:22:23Z
2019-12-07T14:24:57Z,42.805,6.029,13.3004,4.60047,2470.04,2019-12-07T16:25:26Z
2019-12-07T14:28:00Z,42.805,6.029,13.2971,4.60027,2470.063,2019-12-07T16:28:29Z
2019-12-07T14:31:03Z,42.805,6.029,13.2978,4.60043,2470.053,2019-12-07T16:31:32Z
2019-12-07T14:34:06Z,42.805,6.029,13.3009,4.60024,2470.04,2019-12-07T16:34:36Z
2019-12-07T14:37:10Z,42.805,6.029,13.3024,4.60036,2470.04,2019-12-07T16:37:39Z
2019-12-07T14:40:13Z,42.805,6.029,13.3025,4.60010,2470.063,2019-12-07T16:40:42Z
2019-12-07T14:43:16Z,42.805,6.029,13.3078,4.60052,2470.053,2019-12-07T16:43:45Z
2019-12-07T14:46:19Z,42.805,6.029,13.3051,4.60016,2470.053,2019-12-07T16:46:49Z
2019-12-07T14:49:22Z,42.805,6.029,13.3048,4.59999,2470.04,2019-12-07T16:49:52Z
2019-12-07T14:52:25Z,42.805,6.029,13.3029,4.60016,2470.053,2019-12-07T16:52:55Z
2019-12-07T14:55:29Z,42.805,6.029,13.3028,4.59997,2470.053,2019-12-07T16:55:58Z
2019-12-07T14:58:32Z,42.805,6.029,13.3039,4.59989,2470.03,2019-12-07T16:59:01Z
2019-12-07T15:01:35Z,42.805,6.029,13.3037,4.59994,2470.053,2019-12-07T17:02:04Z